Hourly Weather Fedorovsk

Today, 7 July, Tuesday

Time Temperature Precipitation Wind Pressure Humidity
00:00 +19°C° 1.6 mm 2 mps 738 mmHg 96%
01:00 +19°C° 1.6 mm 3 mps 738 mmHg 96%
02:00 +18°C° 1.6 mm 4 mps 738 mmHg 96%
03:00 +18°C° 0.4 mm 4 mps 738 mmHg 96%
04:00 +17°C° 0.4 mm 4 mps 738 mmHg 95%
05:00 +17°C° 0.4 mm 3 mps 738 mmHg 95%
06:00 +17°C° 0.2 mm 4 mps 739 mmHg 95%
07:00 +17°C° 0.2 mm 4 mps 739 mmHg 94%
08:00 +15°C° 0.2 mm 5 mps 739 mmHg 93%
09:00 +14°C° 0.4 mm 5 mps 739 mmHg 93%
10:00 +14°C° 0.4 mm 6 mps 740 mmHg 92%
11:00 +13°C° 0.4 mm 6 mps 740 mmHg 92%
12:00 +13°C° 0 mm 6 mps 740 mmHg 90%
13:00 +13°C° 0 mm 5 mps 740 mmHg 89%
14:00 +13°C° 0 mm 5 mps 740 mmHg 87%
15:00 +13°C° 0 mm 4 mps 740 mmHg 86%
16:00 +13°C° 0 mm 4 mps 740 mmHg 86%
17:00 +13°C° 0 mm 4 mps 740 mmHg 85%
18:00 +13°C° 0.2 mm 4 mps 740 mmHg 87%
19:00 +12°C° 0.2 mm 3 mps 741 mmHg 89%
20:00 +12°C° 0.2 mm 3 mps 741 mmHg 91%
21:00 +12°C° 0.2 mm 3 mps 741 mmHg 92%
22:00 +12°C° 0.2 mm 3 mps 741 mmHg 93%
23:00 +12°C° 0.2 mm 3 mps 741 mmHg 94%

Tomorrow, 8 July, Wednesday

Time Temperature Precipitation Wind Pressure Humidity
00:00 +12°C° 0 mm 3 mps 741 mmHg 94%
01:00 +11°C° 0 mm 3 mps 741 mmHg 93%
02:00 +11°C° 0 mm 4 mps 741 mmHg 92%
03:00 +11°C° 0 mm 4 mps 741 mmHg 92%
04:00 +10°C° 0 mm 4 mps 741 mmHg 93%
05:00 +10°C° 0 mm 4 mps 742 mmHg 94%
06:00 +11°C° 0 mm 4 mps 742 mmHg 90%
07:00 +13°C° 0 mm 4 mps 742 mmHg 85%
08:00 +14°C° 0 mm 4 mps 742 mmHg 81%
09:00 +15°C° 0 mm 4 mps 742 mmHg 76%
10:00 +17°C° 0 mm 4 mps 743 mmHg 70%
11:00 +17°C° 0 mm 5 mps 743 mmHg 65%
12:00 +19°C° 0 mm 5 mps 743 mmHg 63%
13:00 +19°C° 0 mm 5 mps 743 mmHg 61%
14:00 +20°C° 0 mm 5 mps 743 mmHg 59%
15:00 +19°C° 0.1 mm 5 mps 743 mmHg 62%
16:00 +19°C° 0.1 mm 5 mps 743 mmHg 65%
17:00 +17°C° 0.1 mm 5 mps 743 mmHg 69%
18:00 +17°C° 0.1 mm 4 mps 743 mmHg 74%
19:00 +16°C° 0.1 mm 3 mps 743 mmHg 80%
20:00 +14°C° 0.1 mm 3 mps 743 mmHg 85%
21:00 +14°C° 0 mm 2 mps 743 mmHg 88%
22:00 +13°C° 0 mm 2 mps 743 mmHg 91%
23:00 +12°C° 0 mm 2 mps 743 mmHg 94%

Day after tomorrow, 9 July, Thursday

Time Temperature Precipitation Wind Pressure Humidity
00:00 +12°C° 0.1 mm 2 mps 743 mmHg 93%
01:00 +11°C° 0.1 mm 3 mps 743 mmHg 93%
02:00 +11°C° 0.1 mm 3 mps 744 mmHg 93%
03:00 +11°C° 0.5 mm 3 mps 744 mmHg 94%
04:00 +12°C° 0.5 mm 2 mps 744 mmHg 95%
05:00 +12°C° 0.5 mm 2 mps 744 mmHg 97%
06:00 +12°C° 0.2 mm 3 mps 744 mmHg 95%
07:00 +12°C° 0.2 mm 3 mps 745 mmHg 93%
08:00 +13°C° 0.2 mm 3 mps 745 mmHg 92%
09:00 +14°C° 0.6 mm 4 mps 745 mmHg 87%
10:00 +15°C° 0.6 mm 4 mps 745 mmHg 82%
11:00 +16°C° 0.6 mm 5 mps 746 mmHg 77%
12:00 +17°C° 0.2 mm 5 mps 746 mmHg 71%
13:00 +19°C° 0.2 mm 5 mps 746 mmHg 66%
14:00 +19°C° 0.2 mm 5 mps 746 mmHg 60%
15:00 +19°C° 0.1 mm 5 mps 746 mmHg 62%
16:00 +19°C° 0.1 mm 5 mps 746 mmHg 64%
17:00 +19°C° 0.1 mm 4 mps 746 mmHg 66%
18:00 +18°C° 0.1 mm 4 mps 746 mmHg 72%
19:00 +16°C° 0.1 mm 3 mps 746 mmHg 79%
20:00 +15°C° 0.1 mm 2 mps 746 mmHg 85%
21:00 +14°C° 0 mm 2 mps 747 mmHg 87%
22:00 +13°C° 0 mm 2 mps 747 mmHg 90%
23:00 +12°C° 0 mm 2 mps 747 mmHg 92%

10 July, Friday

Time Temperature Precipitation Wind Pressure Humidity
00:00 +12°C° 0 mm 2 mps 747 mmHg 92%
01:00 +10°C° 0 mm 2 mps 748 mmHg 93%
02:00 +10°C° 0 mm 2 mps 748 mmHg 93%
03:00 +10°C° 0 mm 2 mps 748 mmHg 93%
04:00 +10°C° 0 mm 2 mps 748 mmHg 93%
05:00 +11°C° 0 mm 1 mps 748 mmHg 93%
06:00 +13°C° 0 mm 2 mps 748 mmHg 88%
07:00 +15°C° 0 mm 2 mps 748 mmHg 82%
08:00 +17°C° 0 mm 2 mps 748 mmHg 77%
09:00 +18°C° 0 mm 2 mps 748 mmHg 71%
10:00 +19°C° 0 mm 3 mps 748 mmHg 65%
11:00 +21°C° 0 mm 3 mps 748 mmHg 59%
12:00 +21°C° 0 mm 3 mps 748 mmHg 58%
13:00 +22°C° 0 mm 3 mps 748 mmHg 57%
14:00 +22°C° 0 mm 3 mps 748 mmHg 56%
15:00 +22°C° 0 mm 3 mps 747 mmHg 58%
16:00 +24°C° 0 mm 3 mps 747 mmHg 61%
17:00 +24°C° 0 mm 3 mps 747 mmHg 63%
18:00 +21°C° 0 mm 3 mps 746 mmHg 69%
19:00 +20°C° 0 mm 4 mps 746 mmHg 74%
20:00 +19°C° 0 mm 4 mps 746 mmHg 80%
21:00 +18°C° 0 mm 4 mps 746 mmHg 79%
22:00 +18°C° 0 mm 4 mps 746 mmHg 79%
23:00 +17°C° 0 mm 4 mps 746 mmHg 79%

11 July, Saturday

Time Temperature Precipitation Wind Pressure Humidity
00:00 +16°C° 0 mm 5 mps 745 mmHg 79%
01:00 +16°C° 0 mm 5 mps 745 mmHg 79%
02:00 +16°C° 0 mm 5 mps 745 mmHg 79%
03:00 +16°C° 0 mm 5 mps 745 mmHg 82%
04:00 +16°C° 0 mm 5 mps 744 mmHg 84%
05:00 +16°C° 0 mm 5 mps 744 mmHg 87%
06:00 +17°C° 0.1 mm 5 mps 744 mmHg 87%
07:00 +19°C° 0.1 mm 4 mps 745 mmHg 88%
08:00 +19°C° 0.1 mm 4 mps 745 mmHg 88%
09:00 +20°C° 0.1 mm 4 mps 745 mmHg 86%
10:00 +21°C° 0.1 mm 3 mps 745 mmHg 84%
11:00 +22°C° 0.1 mm 3 mps 746 mmHg 82%
12:00 +21°C° 0.3 mm 3 mps 746 mmHg 81%
13:00 +20°C° 0.3 mm 3 mps 746 mmHg 81%
14:00 +19°C° 0.3 mm 4 mps 746 mmHg 81%
15:00 +19°C° 0 mm 3 mps 746 mmHg 78%
16:00 +19°C° 0 mm 3 mps 746 mmHg 75%
17:00 +19°C° 0 mm 3 mps 746 mmHg 72%
18:00 +17°C° 0 mm 3 mps 745 mmHg 75%
19:00 +16°C° 0 mm 3 mps 745 mmHg 77%
20:00 +13°C° 0 mm 3 mps 745 mmHg 79%
21:00 +13°C° 0 mm 3 mps 745 mmHg 80%
22:00 +13°C° 0 mm 3 mps 745 mmHg 82%
23:00 +13°C° 0 mm 3 mps 745 mmHg 83%

12 July, Sunday

Time Temperature Precipitation Wind Pressure Humidity
00:00 +12°C° 0.4 mm 4 mps 745 mmHg 87%
01:00 +12°C° 0.4 mm 4 mps 745 mmHg 90%
02:00 +11°C° 0.4 mm 4 mps 745 mmHg 94%
03:00 +11°C° 1.8 mm 3 mps 745 mmHg 95%
04:00 +11°C° 1.8 mm 3 mps 745 mmHg 96%
05:00 +12°C° 1.8 mm 2 mps 745 mmHg 98%
06:00 +12°C° 0.8 mm 2 mps 745 mmHg 95%
07:00 +13°C° 0.8 mm 2 mps 745 mmHg 93%
08:00 +13°C° 0.8 mm 2 mps 745 mmHg 90%
09:00 +15°C° 0 mm 2 mps 745 mmHg 84%
10:00 +16°C° 0 mm 2 mps 746 mmHg 77%
11:00 +17°C° 0 mm 2 mps 746 mmHg 71%
12:00 +18°C° 0.1 mm 2 mps 746 mmHg 68%
13:00 +19°C° 0.1 mm 2 mps 745 mmHg 65%
14:00 +20°C° 0.1 mm 2 mps 745 mmHg 61%
15:00 +19°C° 0.5 mm 3 mps 745 mmHg 67%
16:00 +19°C° 0.5 mm 3 mps 745 mmHg 72%
17:00 +18°C° 0.5 mm 3 mps 745 mmHg 77%
18:00 +17°C° 0.3 mm 3 mps 745 mmHg 81%
19:00 +16°C° 0.3 mm 3 mps 745 mmHg 85%
20:00 +14°C° 0.3 mm 3 mps 745 mmHg 88%
21:00 +13°C° 0 mm 3 mps 745 mmHg 90%
22:00 +12°C° 0 mm 3 mps 745 mmHg 91%
23:00 +11°C° 0 mm 3 mps 745 mmHg 92%
Show more